Location: *
(49.5667°N, 1.3667°W)
Time: 22:46:20
(UTC+00:00)

SL-16 R/B - Pass Details

Date: 20 September 2019
Orbit: 840 x 849 km, 71.0° (Epoch: 15 October)

Event Time Altitude Azimuth Distance (km) Brightness Sun altitude
Rises 19:42:02 0° 332° (NNW) 3,416 6.1 -15.6°
Reaches altitude 10° 19:44:33 10° 337° (NNW) 2,479 5.3 -16.0°
Maximum altitude 19:50:10 58° 56° (NE) 986 2.3 -16.8°
Enters shadow 19:53:05 28° 125° (SE) 1,542 3.0 -17.3°
